Temp
-5 -5 -5 -5 -5 -5 -5 -5 -5 -5 -6 -6 -6 -6 -6 -6 -6 -6 -7 -7 -7 -7 -7 -7 -7 -7 -7 -7 -7 -7 -7 -7 -7 -7 -7 -7 -7 -7 -7 -7 -7 -7
-5 -5 -5 -5 -5 -5 -5 -5 -5 -5 -6 -6 -6 -6 -6 -6 -6 -6 -6 -6 -6 -7 -7 -7 -7 -7 -7 -7 -7 -7 -7 -7 -7 -7 -7 -7 -7 -8 -8 -8 -8 -8
-5 -5 -5 -5 -5 -5 -5 -5 -5 -5 -6 -6 -6 -6 -6 -6 -6 -6 -6 -6 -6 -6 -6 -6 -6 -7 -7 -7 -7 -7 -7 -7 -7 -7 -7 -7 -8 -8 -8 -8 -8 -8
-5 -5 -5 -5 -5 -5 -5 -5 -5 -5 -6 -6 -6 -6 -6 -6 -6 -6 -6 -6 -6 -6 -6 -6 -6 -6 -6 -6 -7 -7 -7 -7 -7 -7 -7 -7 -8 -8 -8 -8 -8 -8
-5 -5 -5 -5 -5 -5 -5 -5 -6 -6 -6 -6 -6 -6 -6 -6 -6 -6 -6 -6 -6 -6 -6 -6 -6 -6 -6 -6 -6 -6 -7 -7 -7 -7 -8 -8 -8 -8 -8 -8 -8 -8
-5 -5 -5 -4 -5 -5 -5 -5 -6 -6 -6 -6 -6 -6 -6 -6 -6 -6 -6 -6 -6 -6 -6 -6 -6 -6 -6 -6 -6 -6 -6 -7 -7 -7 -7 -8 -8 -8 -8 -8 -8 -8
-5 -5 -5 -4 -4 -5 -5 -5 -5 -5 -6 -6 -6 -6 -6 -6 -6 -6 -6 -5 -5 -6 -6 -6 -6 -6 -6 -6 -6 -6 -6 -7 -7 -7 -7 -7 -8 -8 -8 -8 -8 -8
-5 -5 -5 -4 -4 -5 -5 -5 -5 -5 -5 -6 -6 -6 -6 -6 -6 -5 -5 -5 -5 -6 -6 -6 -6 -6 -6 -6 -6 -6 -6 -6 -7 -7 -7 -7 -7 -7 -8 -8 -8 -8
-5 -5 -4 -4 -4 -5 -5 -5 -5 -5 -5 -5 -5 -6 -6 -6 -5 -5 -5 -5 -6 -6 -6 -6 -6 -6 -6 -6 -6 -6 -6 -6 -6 -6 -7 -7 -7 -7 -8 -8 -8 -8
-5 -5 -4 -4 -4 -5 -5 -5 -5 -5 -5 -5 -5 -5 -5 -5 -5 -5 -5 -5 -6 -5 -5 -5 -5 -5 -6 -6 -6 -6 -6 -6 -6 -6 -6 -7 -7 -7 -7 -8 -8 -8
-5 -5 -4 -4 -4 -5 -5 -5 -5 -5 -5 -5 -5 -5 -5 -5 -5 -5 -5 -5 -5 -5 -5 -5 -5 -5 -5 -5 -5 -6 -6 -6 -6 -6 -6 -7 -7 -7 -7 -7 -7 -7
-5 -5 -5 -4 -4 -4 -5 -5 -5 -5 -5 -5 -5 -5 -5 -5 -5 -5 -5 -5 -5 -5 -5 -5 -5 -5 -5 -5 -5 -6 -6 -6 -6 -6 -6 -6 -6 -7 -7 -7 -7 -7
-5 -5 -5 -5 -5 -5 -5 -5 -5 -5 -5 -5 -5 -5 -5 -5 -5 -5 -5 -5 -5 -5 -5 -5 -5 -5 -5 -5 -6 -6 -6 -6 -6 -6 -6 -6 -6 -6 -7 -7 -7 -7
-5 -5 -5 -5 -5 -5 -5 -4 -4 -4 -5 -5 -5 -5 -5 -5 -5 -5 -5 -5 -5 -5 -5 -5 -5 -5 -5 -5 -6 -6 -6 -6 -6 -6 -6 -6 -6 -7 -7 -7 -7 -7
-5 -5 -5 -5 -5 -5 -5 -5 -5 -5 -5 -5 -5 -5 -5 -5 -5 -5 -4 -5 -5 -5 -5 -5 -5 -6 -6 -6 -6 -6 -6 -6 -6 -6 -6 -6 -7 -7 -7 -7 -7 -7
-5 -5 -5 -5 -5 -5 -5 -5 -5 -5 -5 -5 -5 -5 -5 -5 -5 -5 -5 -5 -5 -5 -5 -5 -6 -6 -6 -6 -6 -6 -6 -6 -6 -6 -6 -6 -6 -7 -7 -7 -7 -7
-5 -5 -5 -5 -5 -5 -5 -5 -5 -5 -5 -5 -5 -5 -5 -5 -5 -5 -5 -5 -5 -5 -5 -5 -6 -6 -6 -6 -6 -6 -6 -6 -6 -6 -6 -6 -6 -6 -7 -7 -7 -7
-5 -5 -5 -5 -5 -5 -5 -5 -5 -5 -5 -5 -5 -5 -5 -5 -5 -5 -5 -5 -5 -5 -5 -6 -6 -6 -6 -6 -6 -6 -6 -6 -6 -6 -5 -5 -6 -6 -6 -6 -7 -7
-5 -5 -5 -5 -5 -5 -5 -5 -5 -5 -5 -5 -5 -5 -5 -5 -5 -5 -5 -5 -5 -5 -6 -6 -6 -6 -6 -6 -6 -6 -6 -6 -6 -6 -6 -5 -6 -6 -6 -6 -6 -6
-5 -6 -6 -6 -5 -5 -5 -5 -5 -5 -5 -5 -5 -5 -5 -5 -5 -5 -5 -5 -6 -6 -6 -6 -6 -6 -6 -6 -6 -6 -6 -6 -6 -6 -6 -6 -6 -6 -6 -6 -6 -6
-6 -6 -6 -6 -6 -6 -5 -5 -5 -5 -5 -5 -5 -5 -5 -6 -6 -6 -6 -6 -6 -6 -6 -6 -6 -6 -6 -6 -6 -6 -6 -6 -6 -6 -6 -6 -6 -6 -6 -6 -6 -6
-6 -6 -6 -6 -6 -6 -6 -6 -6 -6 -6 -6 -6 -6 -6 -6 -6 -6 -6 -6 -6 -6 -6 -6 -6 -6 -6 -6 -6 -6 -6 -6 -6 -6 -6 -6 -6 -6 -6 -6 -6 -6
-6 -6 -6 -6 -6 -6 -6 -6 -6 -6 -6 -6 -6 -6 -6 -6 -6 -6 -6 -6 -6 -6 -6 -6 -6 -6 -6 -6 -6 -6 -6 -6 -6 -6 -6 -6 -6 -6 -6 -6 -6 -6
-6 -6 -6 -6 -6 -6 -6 -6 -6 -6 -6 -6 -6 -6 -6 -6 -6 -6 -6 -6 -6 -6 -6 -6 -7 -7 -6 -6 -6 -6 -6 -6 -6 -6 -6 -6 -6 -6 -6 -6 -6 -6
-6 -6 -6 -6 -6 -6 -6 -6 -6 -7 -7 -7 -6 -6 -6 -6 -6 -6 -6 -6 -6 -6 -6 -6 -7 -7 -7 -6 -6 -6 -6 -6 -6 -6 -6 -6 -6 -6 -6 -6 -6 -6
-6 -6 -6 -6 -6 -6 -7 -7 -7 -7 -7 -7 -7 -7 -7 -7 -7 -7 -7 -7 -7 -7 -7 -7 -7 -7 -7 -7 -6 -7 -6 -6 -6 -6 -6 -7 -6 -6 -6 -6 -6 -6
Height
5939 5941 5942 5943 5945 5947 5948 5949 5950 5951 5952 5953 5954 5956 5957 5959 5960 5961 5962 5962 5963 5963 5964 5964 5964 5965 5965 5965 5965 5965 5966 5966 5966 5966 5966 5966 5966 5966 5966 5966 5966 5966
5938 5939 5940 5942 5944 5946 5947 5948 5949 5950 5951 5952 5954 5956 5957 5958 5959 5960 5962 5962 5963 5964 5965 5965 5965 5966 5966 5966 5966 5966 5966 5966 5966 5966 5967 5967 5966 5966 5966 5966 5966 5966
5936 5938 5939 5940 5942 5944 5946 5947 5948 5949 5950 5952 5954 5955 5957 5958 5959 5960 5961 5962 5963 5964 5965 5965 5966 5966 5967 5967 5966 5966 5966 5967 5967 5967 5967 5967 5967 5966 5966 5966 5966 5966
5935 5936 5937 5939 5940 5942 5944 5946 5947 5949 5950 5951 5953 5954 5956 5957 5958 5960 5961 5962 5963 5963 5964 5965 5965 5966 5967 5967 5967 5967 5967 5967 5967 5967 5967 5967 5967 5967 5966 5966 5966 5966
5933 5934 5935 5937 5939 5941 5943 5945 5946 5948 5949 5950 5951 5953 5954 5956 5957 5959 5960 5961 5962 5963 5963 5964 5965 5965 5966 5967 5967 5967 5967 5967 5967 5967 5967 5967 5967 5967 5966 5966 5966 5966
5931 5932 5934 5935 5937 5939 5941 5943 5945 5946 5948 5949 5950 5952 5953 5955 5956 5958 5959 5960 5961 5962 5963 5963 5964 5964 5965 5966 5966 5967 5967 5967 5967 5967 5967 5967 5967 5966 5966 5966 5965 5965
5929 5930 5932 5933 5935 5937 5939 5941 5943 5945 5946 5948 5949 5951 5952 5953 5955 5956 5957 5959 5960 5961 5962 5962 5963 5964 5964 5964 5965 5965 5966 5966 5967 5967 5967 5967 5966 5966 5966 5965 5965 5965
5926 5928 5929 5931 5933 5936 5937 5939 5941 5943 5945 5946 5948 5949 5951 5952 5953 5954 5956 5957 5958 5959 5960 5961 5962 5962 5963 5963 5963 5964 5965 5965 5966 5966 5966 5966 5966 5965 5965 5965 5965 5965
5924 5926 5927 5929 5932 5934 5936 5937 5939 5941 5943 5945 5946 5948 5949 5950 5951 5953 5954 5955 5956 5957 5958 5959 5960 5961 5961 5962 5962 5963 5963 5964 5965 5965 5965 5965 5965 5965 5964 5964 5964 5964
5922 5924 5926 5928 5931 5932 5934 5935 5937 5939 5941 5943 5944 5946 5947 5948 5950 5951 5952 5954 5955 5956 5956 5957 5958 5959 5960 5960 5961 5961 5962 5963 5963 5964 5964 5964 5964 5963 5963 5963 5963 5963
5920 5922 5925 5927 5929 5931 5932 5934 5935 5937 5939 5941 5943 5944 5945 5946 5948 5949 5950 5952 5953 5954 5955 5955 5956 5957 5958 5959 5959 5960 5960 5961 5961 5962 5962 5962 5962 5962 5962 5962 5962 5962
5918 5921 5923 5926 5927 5929 5930 5932 5934 5935 5937 5939 5941 5942 5943 5944 5946 5947 5948 5949 5950 5952 5953 5954 5955 5956 5957 5957 5958 5959 5959 5959 5960 5960 5960 5961 5961 5961 5961 5961 5961 5961
5917 5919 5921 5923 5925 5927 5928 5930 5932 5933 5935 5937 5938 5940 5941 5942 5944 5945 5946 5947 5948 5950 5951 5952 5953 5954 5955 5956 5956 5957 5958 5958 5958 5958 5958 5959 5959 5959 5959 5959 5959 5960
5914 5916 5918 5920 5922 5924 5926 5927 5929 5931 5933 5934 5936 5938 5939 5940 5942 5943 5944 5945 5947 5948 5949 5951 5952 5953 5954 5954 5955 5955 5956 5956 5956 5956 5957 5957 5957 5958 5958 5958 5958 5958
5911 5913 5915 5917 5919 5921 5923 5925 5927 5929 5931 5932 5934 5936 5937 5938 5940 5941 5942 5944 5945 5946 5947 5949 5950 5951 5952 5952 5953 5954 5954 5955 5955 5955 5955 5955 5956 5956 5956 5956 5956 5957
5908 5910 5912 5914 5917 5919 5921 5923 5925 5927 5929 5930 5932 5934 5935 5937 5938 5939 5941 5942 5943 5944 5946 5947 5948 5949 5949 5950 5951 5952 5953 5953 5953 5953 5953 5954 5954 5954 5955 5955 5955 5955
5905 5908 5910 5912 5914 5917 5919 5920 5922 5924 5926 5928 5930 5931 5933 5935 5936 5938 5939 5940 5941 5942 5944 5945 5946 5946 5947 5948 5949 5950 5951 5951 5951 5952 5952 5952 5952 5952 5953 5953 5953 5954
5903 5905 5907 5910 5912 5914 5916 5917 5919 5922 5924 5926 5927 5929 5931 5932 5934 5936 5937 5938 5939 5941 5942 5943 5943 5944 5945 5946 5947 5947 5948 5949 5949 5950 5950 5950 5950 5950 5951 5951 5952 5952
5900 5902 5905 5907 5909 5911 5913 5914 5917 5919 5922 5923 5925 5926 5928 5930 5932 5934 5935 5936 5938 5939 5940 5940 5941 5942 5943 5943 5944 5945 5946 5946 5947 5947 5948 5948 5948 5948 5948 5949 5949 5950
5897 5900 5902 5904 5906 5908 5910 5912 5915 5917 5919 5921 5922 5924 5927 5929 5930 5931 5933 5934 5935 5936 5937 5938 5938 5939 5940 5941 5942 5942 5943 5944 5944 5945 5945 5945 5945 5945 5946 5946 5947 5947
5895 5898 5900 5902 5904 5906 5908 5911 5913 5915 5917 5919 5920 5922 5924 5926 5927 5929 5930 5931 5932 5934 5935 5936 5936 5936 5937 5938 5939 5940 5941 5941 5942 5942 5943 5943 5943 5943 5943 5944 5944 5945
5894 5896 5898 5900 5902 5904 5907 5909 5911 5913 5915 5916 5918 5920 5922 5923 5925 5926 5927 5928 5930 5931 5932 5933 5933 5934 5935 5936 5936 5937 5938 5939 5940 5940 5940 5940 5940 5940 5941 5941 5941 5942
5892 5894 5896 5898 5900 5903 5905 5907 5909 5910 5912 5913 5915 5917 5919 5920 5922 5923 5924 5925 5927 5928 5930 5930 5930 5931 5932 5933 5933 5934 5935 5937 5938 5938 5938 5938 5938 5938 5938 5938 5939 5939
5889 5891 5893 5895 5898 5901 5903 5904 5906 5907 5909 5911 5913 5914 5916 5917 5918 5920 5921 5923 5924 5926 5927 5928 5928 5928 5929 5930 5930 5931 5933 5934 5935 5935 5936 5936 5936 5935 5935 5936 5936 5937
5887 5889 5891 5894 5896 5899 5900 5902 5904 5905 5907 5908 5910 5912 5913 5915 5916 5918 5919 5921 5922 5923 5924 5925 5925 5926 5927 5928 5928 5928 5930 5932 5932 5933 5934 5933 5933 5933 5933 5933 5934 5934
5885 5887 5889 5892 5894 5896 5898 5900 5901 5903 5905 5907 5909 5910 5911 5913 5914 5916 5917 5918 5919 5920 5921 5922 5923 5923 5923 5925 5925 5926 5927 5928 5929 5930 5931 5931 5930 5930 5930 5931 5931 5932
Wind_Speed
20 21 21 21 20 19 17 16 16 16 17 17 16 15 14 13 13 12 12 13 14 15 16 17 17 18 18 18 18 17 17 16 15 13 11 10 9 9 10 10 10 9
21 22 23 22 20 19 18 17 16 16 17 17 16 15 15 13 12 11 10 10 11 11 12 13 13 14 14 14 15 15 15 15 15 14 13 11 9 8 8 8 8 8
23 24 24 23 22 21 20 19 18 17 18 17 17 16 15 13 12 11 10 9 9 8 8 8 8 8 8 8 9 10 11 11 12 12 12 11 9 8 7 7 7 7
25 25 25 25 24 23 22 21 20 19 19 19 18 17 15 13 12 11 10 9 9 8 7 6 5 4 3 3 4 4 5 6 7 8 9 9 9 8 7 6 5 6
27 27 27 26 25 24 23 23 22 21 21 21 20 18 16 14 13 11 10 10 9 8 7 6 5 4 4 3 2 1 1 1 2 4 5 6 6 7 7 6 5 5
28 28 28 28 27 26 26 25 24 23 23 22 21 19 18 16 14 12 11 11 10 9 8 7 7 6 6 6 5 4 4 3 2 2 2 3 3 3 4 5 5 4
30 30 30 29 28 28 28 28 26 25 25 23 22 20 19 17 16 14 13 12 11 10 10 9 9 9 8 8 8 7 6 6 5 4 3 3 3 3 2 1 2 3
31 32 32 31 30 30 30 29 28 27 26 25 23 22 20 19 17 16 15 14 13 13 12 11 11 10 10 10 9 9 8 7 7 6 5 5 5 5 4 3 1 0
33 33 33 32 31 31 31 30 29 28 27 26 25 24 22 21 19 18 17 16 15 15 14 13 12 11 11 11 10 9 8 8 8 8 7 7 7 6 6 6 5 3
33 33 33 31 31 32 32 32 31 29 28 27 26 25 24 22 21 20 18 17 17 17 16 14 13 12 12 11 10 9 8 8 9 8 8 9 9 8 8 8 8 6
32 33 32 31 31 32 33 33 32 31 29 28 27 26 25 24 23 21 20 20 19 18 17 15 14 13 12 11 10 9 9 9 10 10 10 10 10 10 10 10 10 8
32 32 31 31 31 33 34 34 33 32 31 30 29 28 27 26 25 23 22 22 21 19 18 16 14 13 12 11 10 10 10 11 11 12 12 12 12 12 12 12 12 10
31 31 32 31 32 33 34 35 34 33 33 32 31 30 28 27 26 25 24 23 22 20 18 17 14 13 12 12 11 11 12 12 13 14 14 14 13 13 13 14 13 12
31 32 32 33 33 33 35 35 35 34 34 33 32 31 29 28 27 26 25 23 22 20 18 16 14 13 13 14 14 13 13 13 14 14 15 15 15 14 14 14 14 14
32 33 34 34 33 33 34 35 35 34 34 33 32 31 30 29 28 27 25 23 22 20 18 16 14 14 15 15 15 15 14 13 13 14 14 15 15 15 15 15 15 15
32 33 34 34 33 32 33 34 34 34 33 32 32 31 31 30 29 28 26 24 22 20 18 16 15 15 16 16 17 16 14 13 13 14 15 15 15 16 16 16 16 16
33 34 34 34 33 32 32 33 33 33 33 32 32 31 31 31 29 28 26 24 22 20 18 16 16 17 17 17 17 16 15 14 14 14 15 15 16 16 16 17 17 17
34 34 34 34 33 33 33 34 34 33 33 32 32 31 31 30 28 27 25 24 23 21 19 18 18 18 18 18 18 17 16 15 15 15 15 15 16 16 17 17 17 18
35 35 35 35 35 35 35 35 34 33 33 32 32 31 30 29 27 26 25 24 23 21 20 19 19 19 18 18 18 18 17 16 16 15 15 16 16 17 17 17 17 17
36 36 36 36 36 36 36 35 34 33 32 32 31 30 28 27 26 25 25 24 23 22 21 20 20 19 19 19 19 19 17 17 17 16 16 16 17 17 17 17 17 17
36 35 36 36 36 36 35 33 32 32 31 30 29 28 27 26 26 25 25 25 24 22 21 20 21 21 21 20 21 20 19 18 17 17 17 17 18 18 18 17 17 16
36 35 35 35 34 34 32 31 31 30 30 29 28 27 26 26 26 25 25 24 24 23 22 21 22 23 22 22 23 22 20 18 17 17 17 18 19 19 19 19 17 16
35 34 34 34 33 31 30 29 30 30 30 29 28 27 26 26 25 25 25 25 24 23 23 23 24 25 24 24 25 24 22 19 18 18 18 18 20 20 20 20 19 17
35 34 33 33 31 29 28 29 29 29 28 27 26 26 25 25 25 25 25 25 24 24 24 25 26 26 26 25 26 26 23 20 19 19 18 19 20 21 21 21 20 19
35 34 33 31 30 28 28 28 28 27 26 25 25 24 24 24 24 24 24 23 23 23 24 25 25 26 26 26 27 27 24 22 21 19 19 20 22 22 23 23 22 21
34 33 32 30 28 28 28 27 27 26 25 23 23 23 23 23 22 22 22 22 23 23 23 23 24 25 25 26 27 27 25 23 22 20 20 22 23 24 25 24 23 23
Wind_Direction
183 186 192 194 193 192 191 190 187 183 180 178 173 161 149 140 134 127 120 115 113 113 113 113 111 110 108 106 104 101 98 95 94 96 104 118 129 134 135 135 132 130
187 189 194 196 194 193 193 193 190 186 184 181 171 159 152 149 147 144 138 132 125 121 118 115 113 111 109 107 106 104 101 98 94 91 90 96 113 132 141 145 146 143
190 192 195 196 195 194 193 193 191 187 185 180 170 162 161 161 160 157 154 151 147 146 140 132 125 119 114 111 108 107 106 104 100 95 90 86 90 105 128 147 156 158
193 194 197 197 196 193 191 190 190 188 185 179 174 171 170 171 171 170 170 169 168 171 170 167 165 157 148 135 120 113 112 110 107 103 98 92 86 87 99 124 147 160
196 196 198 198 195 191 188 189 191 189 186 182 179 177 176 178 181 182 185 187 187 190 194 196 202 212 224 232 230 223 196 151 130 118 113 109 101 92 89 96 116 145
199 199 200 198 194 190 188 190 192 190 188 186 183 182 182 185 188 191 195 200 202 206 212 217 224 233 242 250 257 259 263 266 258 225 171 144 135 119 98 91 94 113
201 202 202 199 195 190 190 192 192 191 190 189 187 187 188 192 196 198 202 208 213 219 226 229 233 239 245 251 257 260 261 264 264 259 243 212 197 190 174 127 86 88
204 204 204 201 196 192 192 194 194 193 192 191 191 192 194 198 203 205 208 214 222 228 234 237 238 240 243 247 253 257 260 262 262 262 254 236 229 221 216 225 235 75
207 207 206 203 197 194 195 196 196 195 194 193 195 198 200 204 208 211 214 219 227 233 236 239 240 240 241 244 250 254 258 259 258 258 252 241 238 232 224 230 240 247
210 210 210 206 200 197 198 199 199 198 197 197 199 202 205 209 212 214 218 222 227 232 234 236 238 240 241 243 247 250 252 253 253 252 248 241 241 238 231 234 241 245
213 212 213 210 204 201 201 202 202 201 200 200 202 205 209 212 214 217 221 224 227 230 232 235 239 241 244 244 242 241 242 246 248 248 246 242 240 239 235 236 243 246
214 214 214 213 210 206 205 204 204 203 203 203 205 208 211 214 217 219 222 225 227 230 232 236 238 240 242 241 236 232 233 238 244 249 250 246 242 240 238 239 244 247
214 214 214 215 214 211 209 208 206 206 206 206 207 209 212 216 219 221 223 225 228 232 235 236 236 236 238 239 236 233 233 237 244 249 252 252 248 244 241 240 244 247
213 213 214 215 216 214 213 211 210 209 208 209 210 211 214 218 221 223 225 227 230 234 236 237 234 232 235 238 239 239 240 243 248 251 253 254 253 250 246 244 245 247
212 212 214 216 216 216 215 215 214 214 213 213 213 214 217 220 223 225 228 230 233 235 237 237 233 233 237 241 243 244 246 247 250 254 254 253 251 249 247 247 246 248
211 212 213 215 216 216 216 216 217 217 216 217 217 218 220 222 224 226 229 232 234 236 236 236 235 237 241 245 247 249 248 247 249 252 253 252 249 246 244 245 247 249
210 211 213 214 215 215 215 216 216 216 217 219 219 220 222 223 224 227 230 232 234 234 235 235 237 240 246 250 252 253 250 248 249 252 254 253 251 247 244 243 245 249
209 211 212 213 214 215 215 216 215 215 217 219 220 222 223 224 225 227 228 230 231 231 232 234 237 242 247 251 254 255 253 252 253 256 257 257 255 252 248 245 243 245
209 210 211 212 213 215 216 217 216 215 217 219 220 222 223 225 226 226 227 227 227 228 229 233 238 243 247 251 253 255 256 255 256 259 260 260 260 258 255 251 248 246
210 210 211 212 214 216 217 218 217 217 218 219 221 222 223 225 226 226 226 225 224 226 229 233 239 243 247 250 253 254 255 255 256 260 263 264 263 260 258 254 250 249
212 212 213 215 217 218 219 219 219 219 220 221 222 223 224 225 225 225 225 225 226 228 231 235 240 244 246 249 252 254 254 254 255 259 263 265 264 261 258 254 251 251
214 214 216 217 219 220 220 220 219 220 221 222 223 224 225 225 225 225 225 226 228 230 232 237 242 245 246 249 251 253 253 253 253 256 259 262 263 261 259 257 257 258
215 216 217 219 221 221 220 219 219 220 222 223 224 224 224 225 225 225 225 227 230 232 234 238 243 245 247 249 252 254 254 254 253 254 255 258 259 259 259 260 261 264
216 216 218 219 219 219 218 218 219 221 222 223 223 223 223 224 226 227 229 232 234 236 237 240 244 247 248 251 254 256 257 257 256 254 253 254 255 255 257 259 262 267
216 216 217 218 217 215 215 216 217 218 219 220 220 221 223 226 228 230 233 236 238 240 241 244 247 250 251 252 255 258 259 258 257 254 250 249 251 252 255 258 263 269
215 216 216 215 213 212 212 213 213 214 216 216 217 219 222 225 227 229 232 235 237 239 242 244 248 251 253 254 256 259 261 260 260 257 251 247 249 252 255 259 264 269